Regional Weather Roundup
Issued by NWS Cleveland, OH

Home | Current Version | Previous Version | Text Only | Print | Product List | Glossary Off
Versions: 1 2 3 4 5 6 7 8 9 10 11 12 13 14 15 16 17 18 19 20 21 22 23 24 25 26 27 28 29 30 31 32 33 34 35 36 37 38 39 40 41 42 43 44 45 46 47 48 49 50

000
ASUS41 KCLE 210210
RWRCLE
OHIO REGIONAL WEATHER ROUNDUP
NATIONAL WEATHER SERVICE WILMINGTON, OH
1000 PM EDT SUN AUG 20 2017

NOTE: "FAIR" INDICATES FEW OR NO CLOUDS BELOW 12,000 FEET WITH NO
SIGNIFICANT WEATHER AND/OR OBSTRUCTIONS TO VISIBILITY.

OHZ001>008-015>018-024>027-034-035-043-044-210300-
   NORTHWEST OHIO

CITY           SKY/WX    TMP DP  RH WIND       PRES   REMARKS
DEFIANCE       FAIR      73  68  84 CALM      30.07S
FINDLAY        FAIR      74  68  81 NW3       30.06F
TOLEDO EXPRESS FAIR      73  70  90 NE3       30.08R
TOLEDO EXEC    FAIR      75  69  81 E5        30.09R
LIMA           FAIR      69  67  93 CALM      30.09S
$$

OHZ009>014-019>023-028>033-038-089-210300-
   NORTHEAST OHIO

CITY           SKY/WX    TMP DP  RH WIND       PRES   REMARKS
CLE-HOPKINS    MOCLDY    80  64  58 SE5       30.12R
CLE-LAKEFRONT  FAIR      77  68  73 CALM      30.09R
CUY CO. ARPT   PTCLDY    77  63  61 SE6       30.12R
LORAIN-ELYRIA    N/A    N/A N/A N/A MISG      30.11R
ASHTABULA      FAIR      71  62  73 SE5       30.14R
AKRON-CANTON   MOCLDY    77  63  61 SE7       30.14R
WOOSTER        FAIR      72  67  84 SE6       30.13S
MANSFIELD      FAIR      76  69  79 SE8       30.13R
YOUNGSTOWN     FAIR      69  60  73 SE7       30.15R
$$

OHZ042-051>053-060>062-070>072-077>081-210300-
  SOUTHWEST OHIO

CITY           SKY/WX    TMP DP  RH WIND       PRES   REMARKS
CINC-COVINGTON MOCLDY    78  68  71 CALM      30.10R
CINC-LUNKEN    FAIR      73  70  90 CALM      30.09R
HAMILTON       FAIR      73  70  90 CALM      30.09R
DAYTON         CLOUDY    77  63  61 CALM      30.11R
WRIGHT-PAT AFB CLOUDY    75  67  76 CALM      30.09S
DAYTON GENERAL FAIR      76  65  68 CALM      30.10R
WILMINGTON     FAIR      73  70  90 CALM      30.11R
$$

OHZ036-037-039>041-045>050-054>059-063>069-073>076-082>088-210300-
  CENTRAL AND SOUTHEAST OHIO

CITY           SKY/WX    TMP DP  RH WIND       PRES   REMARKS
COLUMBUS       FAIR      81  71  71 S6        30.09S
OSU AIRPORT    FAIR      80  68  66 S6        30.10R
BOLTON FIELD   NOT AVBL
RICKENBACK AFB FAIR      75  72  90 SE7       30.09S
NEWARK         FAIR      76  69  79 S3        30.10S
MARION         FAIR      74  68  81 S7        30.10R
LANCASTER      FAIR      72  70  93 SE3       30.12R
ZANESVILLE     FAIR      75  69  81 SE3       30.13R
NEW PHILLY     FAIR      70  68  93 SE5       30.14R
$$



USA.gov is the U.S. government's official web portal to all federal, state and local government web resources and services.